Accueil
METAR-TAF:

METAR-TAF

Aéroports :

Meiringen, Suisse

latitude: 46-44-25N, longitude: 8-06-36E, altitude: 577 m

Observation

Le bulletin a été fait il y a 22 minutes, à 01:20 UTC
Vent 1 kt de direction variable
Température 8°C
Humidité 81%
Pression 1027 hPa
Visibilité 10 km ou plus
Quelques nuages à une hauteur de 6600 ft
Nuages épars à une hauteur de 8100 ft

METAR: LSMM 240120Z AUTO VRB01KT 9999NDV FEW066 SCT081 08/05 Q1027 RMK

Heure: 03:42 (01:42 UTC)


TAF: absent

Observations et prévisions météorologiques de plus de 4000 aéroports (messages METAR et TAF).

Les stations disponibles sont représentées par des disques jaunes et rouges sur la carte.

Passer la souris dessus pour voir le nom de la station.

Cliquer dessus pour voir les observations et prévisions météorologiques.

Pour changer de carte: cliquez sur les boutons verts avec une croix noire pour zoomer, sur le bouton vert avec un tiret pour effectuer un zoom arrière, ou sur les flèches vertes pour les cartes adjacentes.


METAR-TAF: